Perth, Australia

5:20 PM AWST on May 28, 2017 (GMT +0800)
Perth International

Weather History for YPPH - September, 2013

Change the Weather History Date:

Thursday, September 26, 2013

  Actual Average Record
Temperature  
Mean Temperature 58 °F -  
Max Temperature 68 °F 71 °F 82 °F (2001)
Min Temperature 48 °F 51 °F 39 °F (2016)
Degree Days  
Heating Degree Days 7    
Growing Degree Days 8 (Base 50)    
Moisture  
Dew Point 50 °F    
Average Humidity 75    
Maximum Humidity 94    
Minimum Humidity 43    
Precipitation  
Precipitation 0.16 in 0.06 in - ()
Sea Level Pressure  
Sea Level Pressure 30.04 in    
Wind  
Wind Speed 10 mph ()    
Max Wind Speed 25 mph    
Max Gust Speed 37 mph    
Visibility 6.4 miles    
Events Rain    
Averages and records for this station are not official NWS values.
T = Trace of Precipitation, MM = Missing Value Source: Averaged Metar Reports

Daily Weather History Graph

Daily Weather History Graph

Search for Another Location

Airport or City:

Trip Planner

Search our weather history database for the weather conditions in past years. The results will help you decide how hot, cold, wet, or windy it might be!

Date:

Astronomy

Sep. 26, 2013 Rise Set
Actual Time 6:00 AM AWST 6:14 PM AWST
Civil Twilight 5:36 AM AWST 6:39 PM AWST
Nautical Twilight 5:07 AM AWST 7:07 PM AWST
Astronomical Twilight 4:39 AM AWST 7:36 PM AWST
Moon No Moon Rise 10:28 AM AWST (9/26)
Length of Visible Light 13h 02m
Length of Day
12h 14m
Waning Gibbous, 59% of the Moon is Illuminated
Sep 26
Waning Gibbous
Sep 27
Last Quarter
Oct 5
New
Oct 12
First Quarter
Oct 19
Full

Hourly Weather History & Observations

Time (AWST) Temp. Dew Point Humidity Pressure Visibility Wind Dir Wind Speed Gust Speed Precip Events Conditions
12:00 AM 52 °F 48 °F 81% 30.09 in 16 mi NNE 5.8 mph - -   Partly Cloudy
12:00 AM 51.8 °F 48.2 °F 88% 30.06 in 6.2 mi NNE 5.8 mph - N/A   Mostly Cloudy
12:30 AM 51.8 °F 48.2 °F 88% 30.06 in 6.2 mi NNE 5.8 mph - N/A   Scattered Clouds
1:00 AM 50.0 °F 46.4 °F 87% 30.04 in 6.2 mi NNE 6.9 mph - N/A   Partly Cloudy
1:30 AM 50.0 °F 48.2 °F 94% 30.04 in 6.2 mi NNE 5.8 mph - N/A   Partly Cloudy
2:00 AM 50 °F 47 °F 84% 30.04 in - NNE 5.8 mph - -  
2:00 AM 50.0 °F 46.4 °F 87% 30.04 in 6.2 mi NNE 5.8 mph - N/A   Partly Cloudy
2:30 AM 50.0 °F 46.4 °F 87% 30.01 in 6.2 mi NNE 5.8 mph - N/A   Partly Cloudy
3:00 AM 49 °F 46 °F 87% 30.01 in 12 mi NNE 5.8 mph - -   Haze
3:00 AM 50.0 °F 46.4 °F 87% 30.01 in 6.2 mi NNE 5.8 mph - N/A   Partly Cloudy
3:30 AM 48.2 °F 46.4 °F 93% 29.98 in 6.2 mi NNE 4.6 mph - N/A   Partly Cloudy
4:00 AM 48.2 °F 46.4 °F 93% 29.98 in 6.2 mi NNE 5.8 mph - N/A   Partly Cloudy
4:30 AM 48.2 °F 46.4 °F 93% 29.98 in 6.2 mi North 5.8 mph - N/A   Mostly Cloudy
5:00 AM 49 °F 47 °F 88% 30.01 in - North 8.1 mph - -  
5:00 AM 50.0 °F 46.4 °F 87% 30.01 in 6.2 mi North 8.1 mph - N/A   Scattered Clouds
5:30 AM 50.0 °F 46.4 °F 87% 30.01 in 6.2 mi North 6.9 mph - N/A   Mostly Cloudy
6:00 AM 51 °F 47 °F 83% 30.02 in 12 mi North 6.9 mph - -   Haze
6:00 AM 50.0 °F 48.2 °F 94% 30.01 in 6.2 mi North 6.9 mph - N/A   Mostly Cloudy
6:30 AM 51.8 °F 48.2 °F 88% 30.01 in 6.2 mi NNE 5.8 mph - N/A   Mostly Cloudy
7:00 AM 53.6 °F 48.2 °F 82% 30.01 in 6.2 mi NNE 8.1 mph - N/A   Mostly Cloudy
7:30 AM 55.4 °F 50.0 °F 82% 30.01 in 6.2 mi North 9.2 mph - N/A   Mostly Cloudy
8:00 AM 57 °F 51 °F 74% 30.03 in - NW 9.2 mph - -  
8:00 AM 57.2 °F 51.8 °F 82% 30.01 in 6.2 mi NW 9.2 mph - N/A Rain Light Rain Showers
8:30 AM 62.6 °F 51.8 °F 68% 30.01 in 6.2 mi NW 11.5 mph - N/A   Scattered Clouds
9:00 AM 66 °F 51 °F 47% 30.02 in - WNW 17.3 mph - -  
9:00 AM 66.2 °F 50.0 °F 56% 30.01 in 6.2 mi WNW 17.3 mph - N/A   Mostly Cloudy
9:30 AM 66.2 °F 48.2 °F 52% 30.01 in 6.2 mi WNW 20.7 mph - N/A   Scattered Clouds
9:50 AM 68.0 °F 48.2 °F 49% 30.01 in 6.2 mi WNW 19.6 mph 31.1 mph N/A   Mostly Cloudy
10:00 AM 68.0 °F 48.2 °F 49% 30.01 in 6.2 mi WNW 18.4 mph 34.5 mph N/A   Mostly Cloudy
10:30 AM 66.2 °F 48.2 °F 52% 30.01 in 6.2 mi WNW 20.7 mph - N/A   Mostly Cloudy
10:53 AM 68.0 °F 50.0 °F 52% 30.01 in 6.2 mi WNW 18.4 mph 29.9 mph N/A   Mostly Cloudy
11:00 AM 66 °F 49 °F 43% 30.02 in - WNW 20.7 mph - -  
11:00 AM 66.2 °F 48.2 °F 52% 30.01 in 6.2 mi WNW 20.7 mph - N/A   Mostly Cloudy
11:08 AM 66.2 °F 50.0 °F 56% 30.01 in 6.2 mi WNW 19.6 mph 32.2 mph N/A   Mostly Cloudy
11:22 AM 64.4 °F 51.8 °F 64% 30.01 in 3.1 mi West 20.7 mph - N/A Rain Light Rain Showers
11:23 AM 62.6 °F 53.6 °F 72% 30.01 in 3.1 mi West 19.6 mph 31.1 mph N/A Rain Light Rain Showers
11:32 AM 60.8 °F 57.2 °F 88% 30.01 in 1.9 mi West 18.4 mph - N/A Rain Light Rain Showers
11:39 AM 59.0 °F 57.2 °F 94% 30.04 in 5.6 mi West 17.3 mph - N/A Rain Light Rain Showers
11:57 AM 60.8 °F 57.2 °F 88% 30.01 in 6.2 mi WNW 15.0 mph - N/A Rain Light Rain Showers
12:00 PM 60 °F 56 °F 83% 30.02 in 9 mi WNW 13.8 mph - - Rain Light Rain Showers
12:00 PM 60.8 °F 57.2 °F 88% 30.01 in 6.2 mi WNW 13.8 mph - N/A Rain Light Rain Showers
12:30 PM 64.4 °F 57.2 °F 77% 30.01 in 6.2 mi WNW 13.8 mph - N/A   Mostly Cloudy
1:00 PM 66.2 °F 55.4 °F 68% 30.01 in 6.2 mi West 17.3 mph - N/A   Mostly Cloudy
1:30 PM 64.4 °F 55.4 °F 73% 30.01 in 6.2 mi WSW 20.7 mph - N/A   Mostly Cloudy
2:00 PM 65 °F 52 °F 52% 30.02 in - WSW 20.7 mph - -  
2:00 PM 66.2 °F 51.8 °F 60% 30.01 in 6.2 mi WSW 20.7 mph - N/A   Mostly Cloudy
2:30 PM 66.2 °F 53.6 °F 64% 30.01 in 6.2 mi WSW 19.6 mph - N/A   Scattered Clouds
2:58 PM 64.4 °F 51.8 °F 64% 30.01 in 1.9 mi WSW 19.6 mph - N/A Rain Heavy Rain Showers
3:00 PM 64 °F 54 °F 62% 30.04 in - WSW 21.9 mph - -   Overcast
3:00 PM 64.4 °F 53.6 °F 68% 30.04 in 0.9 mi WSW 21.9 mph 36.8 mph N/A Rain Heavy Rain Showers
3:03 PM 60.8 °F 57.2 °F 88% 30.04 in 3.1 mi WSW 21.9 mph 36.8 mph N/A Rain Rain Showers
3:12 PM 60.8 °F 57.2 °F 88% 30.04 in 5.6 mi SW 25.3 mph - N/A Rain Light Rain Showers
3:30 PM 60.8 °F 55.4 °F 82% 30.04 in 6.2 mi SW 23.0 mph - N/A   Scattered Clouds
3:33 PM 62.6 °F 57.2 °F 82% 30.04 in 6.2 mi SW 20.7 mph 32.2 mph N/A   Scattered Clouds
4:00 PM 62.6 °F 55.4 °F 77% 30.04 in 6.2 mi SW 17.3 mph - N/A   Mostly Cloudy
4:30 PM 62.6 °F 53.6 °F 72% 30.04 in 6.2 mi SSW 16.1 mph - N/A   Scattered Clouds
5:00 PM 61 °F 51 °F 62% 30.06 in - SW 16.1 mph - -  
5:00 PM 60.8 °F 51.8 °F 72% 30.06 in 6.2 mi SW 16.1 mph - N/A   Mostly Cloudy
5:30 PM 62.6 °F 50.0 °F 63% 30.06 in 6.2 mi SW 16.1 mph - N/A   Scattered Clouds
6:00 PM 60 °F 48 °F 54% 30.08 in 12 mi SW 18.4 mph - -   Haze
6:00 PM 60.8 °F 48.2 °F 63% 30.06 in 6.2 mi SW 18.4 mph - N/A   Scattered Clouds
6:30 PM 60.8 °F 46.4 °F 59% 30.09 in 6.2 mi SW 15.0 mph - N/A   Mostly Cloudy
7:00 PM 59.0 °F 48.2 °F 67% 30.09 in 6.2 mi SSW 15.0 mph - N/A   Scattered Clouds
7:30 PM 57.2 °F 48.2 °F 72% 30.09 in 6.2 mi SSW 8.1 mph - N/A   Mostly Cloudy
8:00 PM 57 °F 49 °F 65% 30.10 in - SSW 8.1 mph - -  
8:00 PM 57.2 °F 48.2 °F 72% 30.09 in 6.2 mi SSW 8.1 mph - N/A   Partly Cloudy
8:30 PM 57.2 °F 48.2 °F 72% 30.12 in 6.2 mi SSW 9.2 mph - N/A   Mostly Cloudy
9:00 PM 57 °F 48 °F 63% 30.14 in 12 mi SSW 9.2 mph - -   Partly Cloudy
9:00 PM 57.2 °F 48.2 °F 72% 30.12 in 6.2 mi SSW 9.2 mph - N/A   Mostly Cloudy
9:30 PM 57.2 °F 46.4 °F 67% 30.12 in 6.2 mi SSW 8.1 mph - N/A   Mostly Cloudy
10:00 PM 53.6 °F 48.2 °F 82% 30.12 in 6.2 mi South 5.8 mph - N/A   Partly Cloudy
10:30 PM 50.0 °F 48.2 °F 94% 30.12 in 6.2 mi SSE 4.6 mph - N/A   Partly Cloudy
11:00 PM 50 °F 48 °F 89% 30.14 in - ESE 4.6 mph - -  
11:00 PM 50.0 °F 48.2 °F 94% 30.12 in 6.2 mi ESE 4.6 mph - N/A   Mostly Cloudy
11:30 PM 50.0 °F 48.2 °F 94% 30.12 in 6.2 mi SE 3.5 mph - N/A   Mostly Cloudy